HYLAS 4

Last updated on Thu Nov 21 2024 00:02:43 GMT+0000 (Coordinated Universal Time)

1 43272U 18033B 24324.64525061 -.00000232 00000+0 00000+0 0 9993 2 43272 0.0566 275.2497 0001272 340.5892 2.1201 1.00270234 24311
UTC large
Height (km)
Speed (km/s)
/
Latitude / Longitude
Inclination (degrees)
Orbital Period (minutes)
Azimuth
Elevation
Range (km)
Doppler Factor

Next 0 passes for location: London (51.5072 / 0.1276)

Sorry there are no passes over London.